Temp_Advection
nan nan nan nan nan nan nan nan nan nan nan nan nan nan nan nan nan nan nan nan nan nan nan nan nan nan nan nan nan nan nan nan nan nan nan nan nan nan nan nan nan nan nan nan
nan -0 -1 -0 -0 -0 0 -0 0 -1 -1 -1 -1 -1 -0 -0 -1 -1 -2 -1 -0 0 -0 0 0 0 0 -0 -0 -0 -0 -0 -0 -0 -0 -0 -0 -0 -0 -0 -0 -0 -0 nan
nan -1 -0 0 0 0 -0 -0 -0 -1 -1 -0 -1 -1 -0 -0 -1 -1 -1 -1 -0 -0 -0 -0 0 -0 -0 -0 -0 -0 -0 -0 -0 -0 -0 -0 -0 -0 0 0 -0 -0 -0 nan
nan -1 0 0 0 -1 0 -0 -1 -2 -0 0 -0 -0 0 -0 -0 -1 -1 -1 -0 -0 -0 -0 -0 -0 -0 -0 -0 -0 -0 -0 -0 -1 -1 -1 -0 -0 -0 -0 -0 -0 -0 nan
nan -0 0 -0 -0 -0 -0 0 0 -0 -0 -0 -0 -0 0 0 -0 -0 -0 -0 -0 0 -0 -0 -0 -0 -0 -0 -0 -0 -0 -0 -1 -1 -1 -1 -0 -0 -0 -0 -0 -0 -0 nan
nan -1 -0 -0 0 0 0 -0 -1 -0 -0 -0 0 -1 0 -0 -0 -0 -1 -0 -0 -0 0 -0 -0 -0 -0 -0 -0 -0 -0 -1 -1 -0 -0 -0 -0 -0 -0 -0 -0 -0 -0 nan
nan -0 -0 -0 -0 -0 -0 -1 -0 0 -0 0 -0 -1 0 0 -0 -0 -1 -1 -0 -0 -0 -0 -0 -0 -0 -0 -0 -0 -0 -0 -0 -0 -0 -0 -0 -0 -0 -0 -0 -0 -0 nan
nan -0 0 0 -0 -0 -0 -1 -0 0 0 0 -1 -0 -0 0 0 -0 -0 -1 -0 -0 -0 -0 0 -0 -0 -0 -0 -0 -0 -0 -0 -0 -0 -0 -0 -0 -0 -0 -0 -0 -0 nan
nan -0 0 0 -0 -0 0 0 -0 -0 -0 -0 -0 -0 -0 -0 -0 -0 -0 -0 -0 -0 0 0 0 -0 -0 -0 -0 -0 -0 -0 -0 -0 -0 -0 -0 -0 -0 -0 -0 -0 -0 nan
nan 0 -0 -0 -0 -0 -0 0 -0 -0 -0 -0 -0 -0 -0 -0 -0 -0 -0 -0 -0 -0 -0 0 -0 -0 -0 -0 -0 -0 -0 -0 -0 -0 -0 -0 -0 -0 -0 -0 -0 -0 -0 nan
nan 0 -0 -0 -0 0 -0 -0 -0 -0 -0 -0 0 0 0 0 -0 -0 -0 -0 -0 -0 -0 -0 -0 -0 -0 -0 -0 -0 -0 -0 -0 -0 -0 -0 -0 -0 -0 -0 -0 -0 -0 nan
nan -0 0 0 -0 -0 -0 -0 -0 0 0 -0 -0 -0 -0 -0 0 -0 -0 0 0 -0 -0 -0 0 -0 -0 -0 -0 -0 -0 -0 -0 -0 -0 -0 -0 -0 -0 -0 -0 -0 -0 nan
nan -0 0 -1 -0 -0 -0 -0 -0 -0 -0 -0 -0 -0 0 -0 0 0 -0 -0 -0 0 0 0 0 -0 -0 -0 -0 -0 -0 -0 -0 -0 -0 -0 -0 -0 -0 -0 -0 -0 -0 nan
nan -0 -0 0 -0 -0 -0 -0 -0 -0 -0 -0 -0 -0 0 -0 -0 0 -0 -0 0 1 0 0 0 -0 -0 -0 -0 -0 -0 -0 -0 -0 -0 -0 -0 -0 -0 -0 -0 -0 -0 nan
nan 0 0 0 0 -0 -0 -0 -0 -0 -0 -0 -0 -0 -0 -0 -0 -0 -0 -0 0 0 0 0 -0 -0 -0 -0 -0 -0 -0 -0 -0 -0 -0 -0 -0 -0 -0 -0 0 0 0 nan
nan 0 0 -0 -0 -0 -0 -0 -0 -0 -0 -0 -0 -0 0 0 -0 -0 0 -0 -1 -0 -0 -0 -0 -0 -0 -0 -0 -0 -0 -0 -0 -0 -0 -0 -0 0 -0 -0 0 0 -0 nan
nan -0 0 0 -0 -0 -0 0 -0 -0 -0 -0 -0 0 0 -0 0 0 0 -0 -1 -0 -0 -0 -0 -0 -0 -0 -0 -0 -0 -0 -0 -0 -0 -0 -0 -0 -0 -0 -0 -0 -0 nan
nan -0 -0 0 -0 0 -0 0 -0 -1 -0 -0 -1 -0 -1 -1 1 2 1 -0 -1 -0 -0 -0 -0 -0 -0 -0 -0 -0 -0 -0 -0 -0 -0 -0 -0 -0 -0 -0 -1 -1 -0 nan
nan -0 -0 0 0 -0 0 -0 -0 -0 -0 -1 -1 -1 -1 0 -1 -1 1 0 -0 -0 -0 -0 -0 -0 -0 -0 -0 -0 -0 -0 -1 -0 -0 -0 -0 -0 -0 -0 -0 -0 -0 nan
nan -0 -1 0 0 0 -0 0 -2 -2 -0 -0 -2 -1 -1 -0 -1 -0 1 0 -0 -0 -0 -0 -0 -0 -0 -0 -0 -0 -1 -1 -0 -0 -0 -0 -0 -0 -0 -0 -0 -0 -0 nan
nan -0 -0 -0 0 -0 -0 1 -0 -1 0 -0 -1 -1 -1 -0 -0 -2 -0 0 -0 -0 -0 -0 -0 -0 -0 -0 -0 -0 -0 -0 -0 -0 0 -0 -0 -0 -0 -0 -0 -0 -0 nan
nan -0 0 -0 0 -0 0 -0 -0 -1 0 2 -1 -0 -1 -2 -0 -0 -0 -0 -0 -0 -0 -0 -0 -0 -0 -0 -0 -0 -0 -0 -0 0 -0 -0 -0 -0 -0 -0 -0 -0 -0 nan
nan -0 0 0 -0 -0 0 0 -0 -2 -3 0 0 -0 -1 -2 -1 -0 -0 -0 -0 -0 -0 -0 -0 -0 -0 -0 -0 -0 -0 -0 0 0 -0 -0 -0 -0 -0 -0 -0 -0 -1 nan
nan -0 -0 -0 -0 -0 2 2 1 0 -1 -1 -0 -1 -0 -1 -1 -0 -0 -0 -0 -0 -0 -0 -0 -0 -0 -0 -0 -0 -0 0 0 -0 -0 -0 -0 -0 -0 -0 -0 -1 -1 nan
nan -0 -0 -0 0 -0 0 1 -0 -0 -0 -1 0 -0 -1 -1 -1 -1 -0 -0 -0 -0 -0 -0 -0 -0 -0 -0 -0 -0 -0 0 -0 -0 -0 -0 -0 -0 -0 -0 -0 -0 -0 nan
nan nan nan nan nan nan nan nan nan nan nan nan nan nan nan nan nan nan nan nan nan nan nan nan nan nan nan nan nan nan nan nan nan nan nan nan nan nan nan nan nan nan nan nan
Wind_Speed
10 2 7 11 8 4 4 5 5 2 9 14 12 15 11 19 30 28 29 30 32 32 27 25 20 17 12 7 4 6 7 6 7 10 12 10 8 7 10 8 10 17 18 21
2 9 14 6 5 6 8 8 7 18 18 19 19 16 14 17 16 26 29 29 32 32 26 22 18 12 7 4 5 8 7 7 8 9 10 10 9 6 6 9 14 16 15 16
7 11 4 7 8 6 6 6 2 9 18 17 20 11 10 10 21 24 22 27 26 25 23 19 14 9 6 6 7 8 6 7 9 10 10 8 7 7 10 14 16 15 15 15
6 12 9 12 9 9 2 2 7 19 6 5 3 4 3 6 9 15 19 24 24 21 18 14 11 8 6 9 9 6 6 9 11 13 15 15 13 12 13 15 17 17 15 16
10 4 4 7 7 4 6 2 3 8 5 6 4 7 4 6 6 6 15 21 21 17 15 12 8 6 7 9 8 7 10 11 14 18 17 17 16 14 15 17 17 15 16 18
10 9 5 5 4 4 1 4 6 4 4 4 2 6 4 5 7 8 11 17 22 20 16 12 7 4 7 9 8 9 10 13 17 17 17 18 20 18 17 18 20 22 22 22
6 6 3 3 4 7 6 6 3 4 4 3 1 7 2 6 13 14 18 22 22 18 14 10 3 3 6 9 8 7 8 11 15 18 19 19 18 17 19 20 22 24 24 24
2 8 5 2 4 4 1 7 5 5 5 3 7 3 2 6 18 20 22 24 20 16 12 9 5 2 5 7 7 5 7 10 16 18 19 19 20 19 19 20 22 22 23 23
2 3 3 6 2 4 2 1 4 6 5 5 2 4 3 7 9 17 22 23 18 15 14 12 8 2 3 7 5 5 7 12 17 17 18 20 24 21 21 21 21 21 23 22
1 3 1 2 6 7 4 1 5 4 4 3 2 5 4 11 10 10 15 20 16 17 19 14 8 3 4 5 5 5 9 15 15 14 16 20 24 20 22 22 22 23 24 22
3 4 4 5 3 1 5 4 4 4 4 4 5 3 4 10 10 10 17 19 21 23 19 14 7 3 4 5 5 6 11 17 13 15 18 22 21 21 24 23 23 25 24 22
3 4 3 3 2 4 5 3 4 5 3 3 3 3 3 10 17 20 19 20 24 22 17 11 7 3 4 7 3 7 13 14 13 15 20 21 20 21 25 24 23 26 25 24
0 2 3 6 6 7 7 5 3 4 3 2 4 3 3 16 15 19 21 22 24 21 16 12 9 3 5 9 5 6 11 16 14 17 19 21 21 21 24 25 24 25 24 24
3 3 5 5 3 3 5 7 4 5 3 3 1 9 8 10 11 17 21 22 23 20 18 15 8 4 7 8 6 4 11 14 15 18 19 22 22 23 24 25 25 24 25 25
5 5 6 4 7 8 6 10 10 6 4 4 12 9 11 11 14 21 22 22 22 20 19 13 7 4 7 7 7 7 11 13 16 18 19 21 22 22 26 28 27 26 28 25
3 1 4 6 10 11 8 8 13 13 13 12 13 5 6 18 20 21 24 23 22 21 16 12 7 7 8 8 7 7 9 13 17 18 18 22 21 22 30 32 29 29 28 25
4 4 4 2 3 6 5 3 7 5 5 15 7 5 16 9 9 12 19 22 22 19 15 10 9 11 10 7 5 6 10 14 17 16 19 22 21 24 30 33 33 30 29 27
4 4 3 3 3 3 5 5 9 13 8 14 16 13 16 20 22 21 20 22 20 17 13 12 12 11 9 7 6 8 12 15 16 17 17 23 20 25 28 33 34 30 30 30
5 4 4 4 3 1 3 4 8 8 3 16 15 20 26 31 30 19 16 16 16 14 14 15 12 10 6 6 9 10 12 14 17 19 19 22 20 24 27 31 33 31 32 34
6 6 5 3 5 6 7 5 27 15 3 13 30 27 29 16 4 6 14 14 15 16 17 13 12 7 5 7 9 12 13 16 18 21 17 20 20 23 26 28 30 31 33 36
3 3 5 3 2 4 1 19 11 5 5 21 23 26 19 5 5 25 19 18 19 19 15 12 6 5 6 5 9 10 14 15 16 18 16 18 19 22 25 26 29 31 33 36
5 5 2 3 4 1 8 6 6 10 17 25 27 26 19 28 29 25 22 23 21 18 14 7 5 6 5 5 7 9 11 10 13 15 16 19 18 20 24 26 28 30 32 37
1 5 5 2 3 4 3 14 23 29 31 27 29 27 31 31 28 27 26 24 18 15 11 4 6 7 8 9 9 8 11 12 14 14 17 20 17 20 23 25 27 29 32 38
2 6 5 4 6 13 30 31 29 24 25 25 26 29 26 31 30 29 26 20 20 15 6 4 5 7 9 9 9 11 12 10 11 12 16 20 19 20 23 24 26 27 30 35
3 6 6 6 10 23 18 29 28 27 28 28 25 25 26 30 30 27 24 23 16 9 8 3 3 7 9 8 9 10 12 12 13 12 15 19 20 20 22 24 25 25 26 31
1 6 5 4 23 14 22 29 26 29 29 27 29 28 25 27 29 26 23 15 12 10 6 4 7 8 8 7 8 13 13 14 15 11 16 19 20 19 22 24 23 23 23 26
Wind_Direction
245 97 230 232 219 193 222 223 263 180 142 69 73 63 54 83 101 97 95 99 104 110 122 130 131 130 124 111 68 16 355 3 341 329 322 326 344 328 321 349 334 339 347 347
29 223 234 237 262 249 247 247 250 62 86 88 83 63 62 68 89 105 114 114 119 122 125 123 122 125 122 88 22 10 360 344 336 329 332 339 339 360 11 352 336 343 356 350
188 240 256 217 249 260 238 197 51 108 92 117 93 53 66 66 93 103 108 117 125 132 129 126 127 119 100 58 22 358 356 353 345 351 350 338 311 301 296 320 335 338 335 340
228 265 246 264 262 194 118 174 129 147 134 189 142 130 57 104 90 96 117 126 133 139 132 130 122 105 45 15 352 4 9 356 357 4 4 4 1 355 350 338 335 328 324 334
244 239 247 240 217 161 222 176 162 168 151 112 76 87 170 145 112 127 127 131 137 143 141 136 130 84 25 29 24 21 6 6 12 8 1 2 1 349 336 330 338 347 341 340
246 260 201 225 155 145 137 77 30 53 120 64 295 117 218 178 161 131 117 129 144 144 142 139 112 49 32 15 27 8 12 17 12 2 357 354 353 354 351 354 351 348 345 343
297 264 256 184 48 16 74 65 360 338 30 125 358 56 149 149 146 150 136 137 146 149 151 138 131 60 18 13 16 16 16 19 3 356 355 354 353 357 356 351 347 344 345 347
238 310 165 209 148 183 113 148 159 226 170 169 23 87 159 99 117 131 145 148 146 153 149 144 151 110 23 16 27 35 19 9 354 355 1 1 360 356 352 348 346 346 348 350
62 314 4 85 86 103 308 32 191 115 54 81 113 88 77 121 121 129 142 149 153 154 161 165 165 144 37 14 64 21 13 360 353 360 359 359 357 353 354 352 351 355 357 356
206 84 319 78 41 8 100 235 40 6 136 106 169 180 190 177 170 158 152 157 153 161 163 165 165 142 22 31 44 15 14 357 1 358 356 355 353 358 2 359 3 1 358 356
108 94 299 57 45 237 20 18 43 110 108 143 165 250 214 173 159 161 167 163 165 166 170 170 162 144 29 40 14 26 3 355 359 358 354 350 358 4 2 3 3 359 355 354
355 121 75 114 360 109 82 104 104 103 301 61 104 278 11 125 143 153 163 168 167 175 176 171 172 149 52 28 35 14 357 7 3 356 351 359 3 3 0 3 0 360 360 357
182 42 83 354 354 13 58 358 63 112 72 35 121 208 116 118 131 155 154 160 168 173 170 171 178 139 40 15 71 17 6 2 358 352 356 3 3 1 1 360 1 359 356 352
91 71 141 152 194 130 75 44 32 95 94 131 128 138 157 139 134 144 151 162 170 173 172 172 156 106 31 84 48 42 1 1 358 355 359 3 8 4 6 2 358 355 352 350
95 97 94 109 104 93 98 77 52 61 124 126 160 143 161 156 156 162 161 163 161 166 169 162 143 85 92 65 51 20 6 3 359 360 1 5 6 12 5 1 355 353 351 348
25 146 91 44 77 85 78 84 87 86 88 86 112 88 141 154 157 160 164 156 144 158 154 145 124 103 90 69 49 22 12 3 355 1 11 8 16 11 7 5 4 360 1 359
84 120 84 62 98 83 36 337 90 98 97 130 144 152 127 104 115 149 143 154 150 144 138 123 102 94 84 77 61 23 6 352 353 10 11 23 16 12 10 7 7 10 9 5
108 84 83 147 37 62 251 103 118 110 112 106 103 115 109 106 99 118 140 145 138 135 126 113 101 102 100 76 27 356 347 352 9 13 26 25 17 12 9 6 10 14 14 13
63 104 73 116 91 325 102 171 140 129 87 130 124 125 122 118 112 83 121 125 125 121 112 112 112 102 83 17 2 357 1 22 35 37 28 23 15 12 9 9 12 15 15 15
65 70 108 87 127 194 225 154 126 109 111 173 143 151 155 156 94 157 134 125 119 116 115 116 111 94 21 24 2 6 41 38 36 29 20 18 13 15 10 11 12 15 14 12
68 27 124 112 129 302 181 146 129 97 216 164 160 157 158 110 145 146 139 124 121 122 119 124 119 47 47 21 2 42 45 39 29 23 16 12 11 15 13 14 14 12 11 10
153 129 154 87 85 206 160 95 138 144 119 151 160 160 127 124 129 135 134 129 130 129 135 133 65 62 36 13 24 64 39 32 25 17 16 14 11 15 17 15 14 12 12 12
68 160 146 140 206 344 158 130 134 143 133 132 137 140 137 134 136 135 131 132 137 144 146 113 57 61 66 73 76 57 35 18 7 6 19 19 23 19 19 15 14 16 14 14
116 128 103 85 5 83 113 126 132 134 131 134 132 136 137 134 136 132 134 141 145 152 142 91 53 54 81 79 58 41 23 15 10 14 21 21 23 20 19 18 16 19 18 16
180 95 111 74 101 96 110 133 132 127 130 132 134 136 135 135 137 138 143 146 148 150 145 141 53 90 97 80 53 34 25 21 23 17 20 21 20 18 20 21 17 23 26 25
138 152 137 198 172 136 148 144 143 138 141 141 138 137 138 141 142 146 148 151 148 148 146 134 113 102 96 69 50 39 30 26 26 25 20 18 18 16 17 18 25 29 32 32
Height
1500 1509 1515 1507 1506 1508 1511 1515 1517 1504 1511 1519 1534 1536 1539 1542 1537 1543 1548 1553 1557 1558 1562 1559 1562 1565 1566 1567 1567 1567 1566 1564 1564 1562 1560 1558 1556 1553 1550 1548 1545 1542 1538 1535
1506 1510 1494 1500 1502 1506 1509 1515 1514 1518 1517 1522 1538 1549 1548 1547 1552 1551 1553 1557 1561 1561 1564 1566 1567 1568 1569 1568 1568 1568 1566 1566 1564 1562 1560 1557 1555 1553 1550 1548 1544 1540 1537 1534
1508 1492 1492 1498 1501 1506 1504 1506 1504 1519 1526 1532 1528 1555 1556 1558 1557 1559 1562 1562 1564 1565 1565 1569 1569 1571 1571 1569 1569 1569 1568 1567 1565 1562 1560 1558 1555 1553 1550 1546 1543 1539 1536 1533
1501 1490 1494 1495 1498 1499 1503 1491 1500 1514 1523 1538 1523 1575 1563 1562 1562 1562 1564 1564 1567 1569 1569 1570 1570 1572 1572 1571 1571 1570 1569 1567 1565 1562 1559 1556 1554 1551 1548 1546 1543 1539 1535 1532
1498 1490 1493 1495 1489 1483 1496 1487 1492 1502 1516 1522 1536 1558 1567 1562 1565 1565 1564 1565 1566 1569 1571 1571 1572 1573 1573 1573 1573 1572 1570 1568 1565 1562 1560 1557 1554 1551 1548 1545 1541 1537 1534 1530
1490 1484 1485 1486 1482 1482 1483 1489 1495 1504 1512 1540 1532 1548 1567 1562 1557 1561 1564 1567 1566 1570 1572 1572 1573 1574 1574 1575 1574 1572 1570 1568 1566 1563 1560 1557 1553 1550 1546 1542 1539 1535 1532 1528
1489 1484 1479 1479 1484 1483 1487 1507 1534 1531 1536 1550 1533 1547 1557 1550 1551 1558 1563 1568 1570 1571 1572 1572 1573 1575 1576 1576 1575 1572 1570 1568 1566 1564 1560 1557 1553 1550 1546 1542 1538 1534 1530 1525
1504 1509 1483 1478 1483 1490 1490 1503 1532 1536 1546 1545 1537 1560 1562 1556 1557 1561 1565 1567 1571 1573 1573 1573 1575 1577 1577 1576 1575 1573 1571 1569 1567 1564 1561 1557 1554 1550 1546 1542 1538 1533 1529 1524
1500 1496 1478 1476 1479 1483 1492 1504 1494 1516 1531 1550 1559 1563 1561 1561 1562 1564 1567 1569 1571 1572 1574 1575 1577 1578 1578 1577 1575 1574 1572 1570 1567 1564 1561 1558 1554 1549 1545 1541 1537 1532 1528 1523
1487 1501 1483 1480 1481 1485 1486 1489 1512 1518 1537 1564 1554 1558 1558 1559 1563 1565 1567 1568 1570 1573 1575 1576 1578 1578 1578 1577 1576 1574 1573 1571 1567 1564 1561 1558 1554 1549 1545 1541 1536 1532 1527 1522
1482 1495 1497 1487 1495 1497 1497 1503 1504 1511 1525 1547 1559 1560 1545 1549 1556 1561 1565 1567 1569 1573 1575 1577 1578 1579 1578 1577 1576 1575 1574 1571 1568 1565 1562 1558 1553 1549 1545 1540 1536 1531 1525 1520
1486 1497 1511 1502 1494 1490 1494 1502 1508 1530 1528 1541 1552 1565 1548 1549 1555 1559 1564 1567 1570 1573 1575 1578 1579 1579 1578 1578 1576 1576 1574 1571 1568 1566 1562 1558 1553 1549 1545 1540 1535 1530 1524 1518
1486 1503 1521 1514 1505 1498 1506 1506 1503 1511 1522 1539 1557 1565 1553 1553 1558 1561 1564 1568 1571 1573 1576 1578 1578 1579 1579 1578 1578 1576 1574 1572 1569 1566 1562 1558 1553 1549 1545 1539 1534 1528 1522 1516
1485 1500 1508 1526 1513 1508 1517 1513 1510 1514 1533 1544 1548 1555 1558 1558 1560 1563 1566 1568 1570 1573 1576 1578 1579 1580 1579 1579 1579 1577 1575 1572 1569 1566 1562 1558 1553 1549 1544 1539 1533 1526 1521 1514
1489 1508 1505 1507 1508 1509 1514 1517 1519 1522 1525 1536 1546 1548 1554 1556 1559 1562 1565 1569 1572 1575 1577 1579 1580 1581 1580 1580 1579 1578 1575 1572 1569 1566 1562 1558 1554 1550 1544 1538 1532 1525 1518 1512
1492 1510 1504 1515 1510 1511 1521 1522 1525 1528 1531 1538 1544 1553 1552 1556 1560 1563 1566 1570 1572 1575 1578 1580 1581 1580 1580 1580 1579 1578 1575 1572 1570 1566 1562 1559 1554 1550 1545 1538 1530 1524 1516 1510
1497 1507 1518 1524 1516 1518 1534 1524 1526 1529 1532 1537 1550 1550 1555 1561 1563 1565 1568 1570 1573 1577 1579 1581 1581 1581 1582 1581 1580 1578 1576 1573 1570 1566 1563 1559 1555 1550 1545 1538 1531 1523 1516 1510
1498 1506 1517 1532 1528 1555 1528 1520 1522 1530 1538 1540 1545 1552 1557 1561 1566 1567 1570 1571 1575 1578 1580 1581 1582 1583 1582 1581 1580 1579 1576 1573 1570 1566 1563 1559 1555 1551 1546 1539 1532 1525 1518 1510
1495 1508 1527 1543 1545 1532 1528 1524 1528 1532 1547 1542 1549 1556 1559 1563 1564 1574 1576 1576 1577 1579 1581 1583 1583 1584 1583 1582 1581 1579 1576 1573 1570 1567 1564 1560 1556 1552 1547 1540 1533 1526 1520 1512
1499 1503 1519 1545 1540 1548 1527 1519 1521 1525 1553 1548 1543 1553 1556 1559 1568 1577 1578 1578 1579 1581 1583 1584 1585 1585 1584 1583 1582 1579 1577 1574 1571 1568 1565 1562 1558 1553 1548 1542 1535 1529 1522 1514
1514 1516 1526 1538 1545 1532 1518 1518 1520 1541 1550 1543 1547 1550 1555 1557 1561 1570 1577 1579 1581 1583 1584 1585 1586 1585 1584 1584 1582 1579 1578 1575 1573 1570 1567 1563 1559 1554 1549 1544 1537 1530 1523 1515
1513 1523 1526 1530 1543 1542 1518 1520 1528 1534 1538 1540 1547 1551 1555 1559 1565 1572 1577 1580 1582 1584 1586 1587 1586 1586 1585 1584 1583 1580 1578 1576 1574 1571 1567 1564 1559 1555 1550 1544 1538 1531 1524 1516
1512 1510 1521 1525 1528 1521 1518 1519 1525 1530 1535 1544 1545 1554 1556 1562 1568 1573 1577 1581 1584 1586 1587 1588 1587 1587 1586 1585 1583 1581 1580 1578 1576 1572 1569 1565 1561 1556 1551 1545 1539 1532 1525 1517
1504 1505 1517 1523 1529 1526 1524 1529 1532 1536 1539 1546 1550 1555 1560 1563 1570 1575 1579 1582 1585 1587 1588 1589 1588 1587 1586 1586 1585 1583 1581 1579 1577 1573 1570 1566 1562 1557 1552 1546 1541 1534 1528 1520
1505 1506 1517 1529 1532 1531 1535 1534 1536 1540 1545 1550 1555 1559 1562 1566 1572 1576 1579 1583 1586 1588 1589 1590 1589 1588 1587 1587 1586 1584 1583 1581 1578 1575 1571 1567 1563 1559 1554 1548 1542 1537 1532 1526
1503 1508 1518 1526 1522 1523 1535 1538 1539 1542 1548 1553 1556 1562 1567 1569 1572 1577 1581 1585 1587 1589 1590 1590 1589 1589 1589 1588 1587 1586 1584 1582 1579 1575 1572 1569 1565 1560 1556 1551 1546 1541 1535 1530